Location: Worth Mountain WMA
(34.9569°N, 81.4819°W)
Time: 00:57:43
(UTC-05:00)

H-2A R/B - Pass Details

Date: 18 August 2017
Orbit: 734 x 837 km, 98.4° (Epoch: 24 November)

Event Time Altitude Azimuth Distance (km) Brightness Sun altitude
Exits shadow 23:41:37 27° 299° (WNW) 1,440 3.8 -35.9°
Drops below altitude 10° 23:44:28 10° 327° (NNW) 2,290 5.2 -36.2°
Sets 23:46:57 0° 337° (NNW) 3,205 6.2 -36.5°
